Regional Weather Roundup
Issued by NWS

Home | Current Version | Previous Version | Text Only | Print | Product List | Glossary On
Versions: 1 2 3 4 5 6 7 8 9 10 11 12 13 14 15 16 17 18 19 20 21 22 23 24 25 26 27 28 29 30 31 32 33 34 35 36 37 38 39 40 41 42 43 44 45 46 47 48 49 50
000
ASUS44 KEWX 041803
RWRTX
SOUTH TEXAS REGIONAL WEATHER ROUNDUP
NATIONAL WEATHER SERVICE AUSTIN/SAN ANTONIO TX
100 PM CDT FRI SEP 04 2015

NOTE: "FAIR" INDICATED FEW OR NO CLOUDS BELOW 12,000 FEET WITH NO
SIGNIFICANT WEATHER AND/OR OBSTRUCTIONS TO VISIBILITY.

* - THESE STATIONS ARE NOT NWS OR FAA STATIONS...AND ARE NOT SUBJECT
    TO NWS AND FAA QUALITY CONTROL.

TXZ171-172-183>190-041900-
TEXAS HILL COUNTRY AND EDWARDS PLATEAU

CITY           SKY/WX    TMP DP  RH WIND       PRES   REMARKS
JUNCTION       MOSUNNY   90  64  42 VRB3      29.97F HX  91
6HR MIN TEMP:  73; 6HR MAX TEMP:  91;

*LLANO         MOSUNNY   91  66  43 S5        29.99F HX  94
BURNET         MOSUNNY   90  67  46 SE9       29.99F HX  93
6HR MIN TEMP:  73; 6HR MAX TEMP:  90;

*HORSESHOE BAY MOSUNNY   91  68  47 S7        29.96F HX  94
6HR MIN TEMP:  73; 6HR MAX TEMP:  91;

*KERRVILLE     SUNNY     89  69  51 S12       29.99F HX  93
6HR MIN TEMP:  74; 6HR MAX TEMP:  89;

*FREDERICKSBRG MOSUNNY   85  65  51 SW9       29.99S
*ROCKSPRINGS   MOSUNNY   88  66  48 SE9       30.03F HX  90
*BOERNE STAGE  CLOUDY    86  66  51 S8        30.00S
*CASTROVILLE   MOSUNNY   92  66  42 CALM      29.96F HX  94
HONDO          PTSUNNY   90  69  50 SE9       29.96F HX  94
6HR MIN TEMP:  76; 6HR MAX TEMP:  90;

*UVALDE        MOSUNNY   89  69  50 CALM      29.94F HX  93
DEL RIO        SUNNY     93  68  43 S9        29.90F HX  97
6HR MIN TEMP:  76; 6HR MAX TEMP:  93;

LAUGHLIN AFB   MOSUNNY   91  69  47 S10       29.90F HX  95
6HR MIN TEMP:  76; 6HR MAX TEMP:  93;

CARRIZO SPRGS  MOSUNNY   91  70  49 E6G16     29.89F HX  97
*EAGLE PASS    PTCLDY    93  68  43 VRB7G15   29.91F HX  97
$$

TXZ173-191>194-202-209-217>225-228-041900-
CENTRAL AND SOUTH CENTRAL TEXAS

CITY           SKY/WX    TMP DP  RH WIND       PRES   REMARKS
GEORGETOWN     NOT AVBL
AUSTIN/BERGSTM PTSUNNY   90  70  51 SW8       29.93F HX  95
6HR MIN TEMP:  75; 6HR MAX TEMP:  91;

AUSTIN/MABRY   PTSUNNY   92  69  47 VRB7      29.95F HX  97
6HR MIN TEMP:  75; 6HR MAX TEMP:  93;

*AUSTIN/EXEC   CLOUDY    88  72  58 CALM      29.96F HX  94
*LAGO VISTA    MOSUNNY   89  68  49 S6        29.98S HX  92
6HR MIN TEMP:  75; 6HR MAX TEMP:  91;

SAN MARCOS     MOSUNNY   90  72  55 S8        29.95F HX  96
NEW BRAUNFELS  MOSUNNY   94  71  47 S10       29.93F HX 101
6HR MIN TEMP:  76; 6HR MAX TEMP:  94;

RANDOLPH AFB   PTSUNNY   89  70  52 S7        29.94F HX  94
6HR MIN TEMP:  73; 6HR MAX TEMP:  90;

PT SAN ANTONIO MOSUNNY   90  69  48 VRB5      29.93F HX  94
6HR MIN TEMP:  77; 6HR MAX TEMP:  90;

SAN ANTONIO    PTSUNNY   89  70  53 CALM      29.95F HX  94
6HR MIN TEMP:  78; 6HR MAX TEMP:  90;

STINSON FIELD  MOSUNNY   92  69  47 S8        29.91F HX  97
6HR MIN TEMP:  77; 6HR MAX TEMP:  92;

*PLEASANTON    PTSUNNY   92  68  44 SE10      29.93F HX  96
*LA GRANGE     SUNNY     91  74  57 CALM      29.93F HX  99
*GIDDINGS      PTSUNNY   88  69  52 S3        29.98F HX  92
*GONZALES      SUNNY     93  73  51 S10       29.93F HX 101
$$

TXZ163>164-176>182-195>201-210>213-226-227-235-041900-
SOUTHEAST TEXAS

CITY           SKY/WX    TMP DP  RH WIND       PRES   REMARKS
COLLEGE STN    PTSUNNY   89  73  59 CALM      29.95F HX  97
6HR MIN TEMP:  75; 6HR MAX TEMP:  89; 6HR PCP: TRACE;

*BRYAN         MOSUNNY   91  72  54 S8        29.97F HX  97
*CALDWELL      SUNNY     90  73  58 CALM      29.98F HX  98
*CROCKETT      MOSUNNY   88  72  58 S3        30.00S HX  94
*BRENHAM       SUNNY     88  75  65 CALM      29.95F HX  98
HUNTSVILLE     MOSUNNY   88  71  57 S12       29.97F HX  94
6HR MIN TEMP:  74; 6HR MAX TEMP:  90; 6HR PCP: TRACE;

CONROE         PTSUNNY   87  71  58 VRB5      29.96F HX  93
6HR MIN TEMP:  72; 6HR MAX TEMP:  88; 6HR PCP: TRACE;

HOUSTON BUSH   PTSUNNY   86  77  74 E6        29.96F HX  97
6HR MIN TEMP:  75; 6HR MAX TEMP:  87; 6HR PCP:  0.01;

HOUSTON HOBBY  LGT RAIN  78  73  84 E12       29.96R
6HR MIN TEMP:  77; 6HR MAX TEMP:  89; 6HR PCP:  0.08;

*HOUSTON SW AP MOSUNNY   82  76  82 SE6       29.97S HX  90
PEARLAND       MOSUNNY   83  74  74 NE6       29.98S
6HR MIN TEMP:  76; 6HR MAX TEMP:  89; 6HR PCP:  0.29;

HOUSTON HOOKS  MOSUNNY   90  74  59 SE6       29.95F HX  99
6HR MIN TEMP:  74; 6HR MAX TEMP:  90; 6HR PCP:  0.03;

ELLINGTON FLD  LGT RAIN  84  77  79 W5        29.98S HX  94
SUGAR LAND     CLOUDY    88  75  65 CALM      29.94F HX  97
6HR MIN TEMP:  75; 6HR MAX TEMP:  90; 6HR PCP:  0.01;

*HOUSTON EXEC  MOSUNNY   90  75  62 E6        29.95F HX 100
*CLEVELAND MUN PTSUNNY   90  77  66 CALM      29.97F HX 102
*WHARTON       PTSUNNY   85  75  71 W8        29.96F HX  94
*COLUMBUS      CLOUDY    86  75  68 NE3       29.94F HX  95
*EAGLE LAKE    MOCLDY    88  74  65 SE7       29.94F HX  96
$$

TXZ214>216-236>238-041900-
THE UPPER TEXAS COAST

CITY           SKY/WX    TMP DP  RH WIND       PRES   REMARKS
*ORANGE        MOSUNNY   88  71  57 CALM      29.98F HX  93
                                      6HR PCP:  0.12;

PORT ARTHUR    CLOUDY    80  76  87 SE12      29.97F FOG
6HR MIN TEMP:  76; 6HR MAX TEMP:  88; 6HR PCP:  0.20;

GALVESTON      MOSUNNY   87  77  72 S13       29.97S HX  99
6HR MIN TEMP:  82; 6HR MAX TEMP:  89; 6HR PCP: TRACE;

ANGLETON       MOSUNNY   89  77  67 SE9       29.94F HX 101
6HR MIN TEMP:  75; 6HR MAX TEMP:  89; 6HR PCP:  0.01;

*BAY CITY      MOSUNNY   86  78  77 CALM      29.95F HX  98
PALACIOS       MOSUNNY   88  77  69 S10       29.94  HX 100
6HR MIN TEMP:  80; 6HR MAX TEMP:  89; 6HR PCP: TRACE;

$$

TXZ229>234-239>247-041900-
TEXAS COASTAL BEND AND RIO GRANDE PLAINS

CITY           SKY/WX    TMP DP  RH WIND       PRES   REMARKS
VICTORIA       MOSUNNY   86  78  77 SE6       29.94F HX  98
6HR MIN TEMP:  74; 6HR MAX TEMP:  86; 6HR PCP:  0.33;

*BEEVILLE      MOSUNNY   93  73  52 SE5G16    29.90F HX 103
6HR MIN TEMP:  70; 6HR MAX TEMP:  94;

ROCKPORT       SUNNY     91  77  63 SE15      29.92F HX 104
6HR MIN TEMP:  80; 6HR MAX TEMP:  91;

*PORT ARANSAS  MOSUNNY   89  78  69 SE12      29.93S HX 102
6HR MIN TEMP:  82; 6HR MAX TEMP:  89;

*PORT LAVACA   MOSUNNY   89  76  67 S6        29.94F HX 100
6HR MIN TEMP:  77; 6HR MAX TEMP:  89;

*INGLESIDE     PTSUNNY   91  76  62 SE15      29.92F HX 103
CORPUS CHRISTI PTSUNNY   92  75  57 SE21G26   29.90F HX 103
6HR MIN TEMP:  76; 6HR MAX TEMP:  92; 6HR PCP: TRACE;

CORPUS NAS     LGT RAIN  86  76  71 SE18G28   29.92F HX  96
6HR MIN TEMP:  80; 6HR MAX TEMP:  90; 6HR PCP: TRACE;

*ROBSTOWN      MOSUNNY   93  74  54 SE12G17   29.91F HX 104
ALICE          MOSUNNY   94  74  52 SE8G17    29.89F HX 104
6HR MIN TEMP:  73; 6HR MAX TEMP:  95;

KINGSVILLE NAS PTSUNNY   85  77  77 SE10      29.90F HX  95
6HR MIN TEMP:  77; 6HR MAX TEMP:  94; 6HR PCP: TRACE;

COTULLA        MOSUNNY   94  69  44 SE12      29.90F HX  99
6HR MIN TEMP:  78; 6HR MAX TEMP:  94;

*FAITH RANCH     N/A     95  70  43 VRB7G14   29.90F HX 101
LAREDO         PTSUNNY   96  70  42 SE7       29.90F HX 102
6HR MIN TEMP:  80; 6HR MAX TEMP:  96;

$$

TXZ248>255-041900-
DEEP SOUTH TEXAS

CITY           SKY/WX    TMP DP  RH WIND       PRES   REMARKS
BROWNSVILLE    MOSUNNY   91  76  61 S20G26    29.91S HX 103
6HR MIN TEMP:  79; 6HR MAX TEMP:  91; 6HR PCP:  0.08;

PORT ISABEL    MOSUNNY   92  79  65 SE16G22   29.91S HX 108
6HR MIN TEMP:  79; 6HR MAX TEMP:  92; 6HR PCP:  0.14;

*SOUTH PADRE   SUNNY     84  77  79 S12       29.92F HX  94
HARLINGEN      MOSUNNY   94  77  57 SE20      29.89F HX 108
6HR MIN TEMP:  77; 6HR MAX TEMP:  94;

*HEBBRONVILLE  NOT AVBL
MCALLEN        MOSUNNY   94  75  54 SE15G22   29.89F HX 105
6HR MIN TEMP:  80; 6HR MAX TEMP:  94;

*WESLACO       LGT RAIN  89  76  67 S13G20    29.90F HX 100
FALFURRIAS     MOSUNNY   94  73  51 SE7G16    29.88F HX 103
EDINBURG       PTSUNNY   92  72  50 SE12G18   29.90S HX 100
*ZAPATA        MOSUNNY   95  67  39 S12G17    29.86F HX  99
$$

TXZ213>215-236>238-242>244-246-247-251-254-255-041900-
CMAN STATIONS

STATION/POSITION TIME  TEMP    WIND        PRES    WAVE
                       AIR SEA DIR/SP/G            HT/PER



USA.gov is the U.S. government's official web portal to all federal, state and local government web resources and services.